Weather History for Shannon, Ireland

Change the Weather History Date:

Wednesday, November 6, 2013

  Actual Average Record
Temperature  
Mean Temperature 46 °F -  
Max Temperature 49 °F 50 °F 60 °F (2003)
Min Temperature 42 °F 40 °F 37 °F (2006)
Degree Days  
Heating Degree Days 20    
Moisture  
Dew Point 46 °F    
Average Humidity 93    
Maximum Humidity 100    
Minimum Humidity 80    
Precipitation  
Precipitation 0.16 in 0.13 in - ()
Sea Level Pressure  
Sea Level Pressure 29.46 in    
Wind  
Wind Speed 7 mph ()    
Max Wind Speed 10 mph    
Max Gust Speed -    
Visibility 5.2 miles    
Events Rain    
Averages and records for this station are not official NWS values.
T = Trace of Precipitation, MM = Missing Value Source: Averaged Metar Reports

Daily Weather History Graph

Daily Weather History Graph

Search for Another Location

Airport:

Trip Planner

Search our weather history database for the weather conditions in past years. The results will help you decide how hot, cold, wet, or windy it might be!

Date:

Astronomy

Nov. 06, 2013 Rise Set
Actual Time 7:41 AM GMT 4:55 PM GMT
Civil Twilight 7:05 AM GMT 5:32 PM GMT
Nautical Twilight 6:23 AM GMT 6:13 PM GMT
Astronomical Twilight 5:43 AM GMT 6:53 PM GMT
Moon 10:56 AM GMT (11/6) 7:34 PM GMT (11/6)
Length of Visible Light 10h 27m
Length of Day
9h 14m
Waxing Crescent, 12% of the Moon is Illuminated
Nov 6
Waxing Crescent
Nov 10
First Quarter
Nov 17
Full
Nov 25
Last Quarter
Dec 3
New

Hourly Weather History & Observations

Time (GMT) Temp. Windchill Dew Point Humidity Pressure Visibility Wind Dir Wind Speed Gust Speed Precip Events Conditions
12:00 AM 49 °F - 45 °F 80% 29.46 in 12 mi SW 8.9 mph - - Rain Light Rain
12:00 AM 48.2 °F - 44.6 °F 87% 29.44 in 6.2 mi WSW 9.2 mph - N/A   Mostly Cloudy
12:30 AM 48.2 °F - 44.6 °F 87% 29.44 in 6.2 mi SSW 8.1 mph - N/A   Mostly Cloudy
1:00 AM 48.2 °F - 46.4 °F 93% 29.44 in 3.7 mi West 9.2 mph - N/A Rain Light Rain
1:30 AM 48.2 °F - 44.6 °F 87% 29.44 in 6.2 mi SW 9.2 mph - N/A Rain Light Rain
2:00 AM 48.2 °F - 46.4 °F 93% 29.44 in 6.2 mi SW 9.2 mph - N/A Rain Light Rain
2:30 AM 48.2 °F - 46.4 °F 93% 29.44 in 3.7 mi WSW 10.4 mph - N/A Rain Light Rain
3:00 AM 48.2 °F - 46.4 °F 93% 29.44 in 6.2 mi WSW 8.1 mph - N/A Rain Light Rain
3:30 AM 48.2 °F - 46.4 °F 93% 29.44 in 6.2 mi SSW 5.8 mph - N/A Rain Light Rain
4:00 AM 48.2 °F - 46.4 °F 93% 29.44 in 6.2 mi SW 8.1 mph - N/A Rain Light Rain
4:30 AM 48.2 °F - 46.4 °F 93% 29.44 in 6.2 mi West 6.9 mph - N/A Rain Light Rain
5:00 AM 48.2 °F - 46.4 °F 93% 29.44 in 6.2 mi SW 5.8 mph - N/A   Mostly Cloudy
5:30 AM 48.2 °F - 46.4 °F 93% 29.44 in 6.2 mi SW 8.1 mph - N/A Rain Light Rain
6:00 AM 48 °F - 46 °F 92% 29.45 in 12 mi SW 8.9 mph - - Rain Light Rain
6:00 AM 48.2 °F - 46.4 °F 93% 29.44 in 6.2 mi SW 6.9 mph - N/A   Mostly Cloudy
6:30 AM 48.2 °F - 46.4 °F 93% 29.44 in 3.7 mi SSW 6.9 mph - N/A Rain Light Rain
7:00 AM 48.2 °F - 46.4 °F 93% 29.44 in 2.5 mi South 5.8 mph - N/A Rain Light Rain
7:30 AM 48.2 °F - 46.4 °F 93% 29.44 in 3.1 mi South 6.9 mph - N/A Rain Light Rain
8:00 AM 48.2 °F - 46.4 °F 93% 29.44 in 3.7 mi South 6.9 mph - N/A   Light Drizzle
8:30 AM 48.2 °F - 46.4 °F 93% 29.44 in 3.1 mi South 6.9 mph - N/A Rain Light Rain
9:00 AM 48.2 °F - 46.4 °F 93% 29.44 in 3.7 mi South 6.9 mph - N/A   Light Drizzle
9:30 AM 48.2 °F - 48.2 °F 100% 29.44 in 3.1 mi South 8.1 mph - N/A Rain Light Rain
10:00 AM 48.2 °F - 48.2 °F 100% 29.42 in 3.7 mi SSW 6.9 mph - N/A Rain Light Rain
10:30 AM 48.2 °F - 48.2 °F 100% 29.42 in 3.7 mi SSW 4.6 mph - N/A Rain Light Rain
11:00 AM 48.2 °F - 48.2 °F 100% 29.42 in 4.3 mi South 5.8 mph - N/A Rain Light Rain
11:30 AM 48.2 °F - 48.2 °F 100% 29.42 in 3.7 mi South 4.6 mph - N/A Rain Light Rain
12:00 PM 49 °F - 49 °F 98% 29.42 in 3 mi South 4.5 mph - - Rain Light Rain
12:00 PM 50.0 °F - 48.2 °F 94% 29.42 in 3.1 mi South 4.6 mph - N/A Rain Light Rain
12:30 PM 50.0 °F - 48.2 °F 94% 29.42 in 3.1 mi WSW 8.1 mph - N/A Rain Light Rain
1:00 PM 50.0 °F - 48.2 °F 94% 29.42 in 2.5 mi West 5.8 mph - N/A Rain Light Rain
1:30 PM 50.0 °F - 48.2 °F 94% 29.39 in 4.3 mi West 6.9 mph - N/A   Mostly Cloudy
2:00 PM 50.0 °F - 48.2 °F 94% 29.39 in 4.3 mi WNW 9.2 mph - N/A Rain Light Rain
2:30 PM 48.2 °F - 46.4 °F 93% 29.39 in 5.6 mi West 8.1 mph - N/A   Light Drizzle
3:00 PM 48.2 °F - 46.4 °F 93% 29.42 in 3.1 mi West 10.4 mph - N/A Rain Light Rain
3:30 PM 48.2 °F - 46.4 °F 93% 29.42 in 5.0 mi West 9.2 mph - N/A Rain Light Rain
4:00 PM 48.2 °F - 46.4 °F 93% 29.42 in 5.0 mi West 9.2 mph - N/A Rain Light Rain
4:30 PM 46.4 °F 41.5 °F 46.4 °F 100% 29.44 in 5.0 mi West 10.4 mph - N/A Rain Light Rain
5:00 PM 46.4 °F 42.4 °F 44.6 °F 93% 29.44 in 6.2 mi West 8.1 mph - N/A Rain Light Rain
5:30 PM 46.4 °F 44.3 °F 44.6 °F 93% 29.47 in 6.2 mi West 4.6 mph - N/A   Mostly Cloudy
6:00 PM 46 °F - 44 °F 92% 29.49 in 5 mi West 6.7 mph - - Rain Light Rain
6:00 PM 46.4 °F 43.5 °F 44.6 °F 93% 29.47 in 5.0 mi West 5.8 mph - N/A Rain Light Rain
6:30 PM 46.4 °F 45.2 °F 44.6 °F 93% 29.50 in 6.2 mi WSW 3.5 mph - N/A   Mostly Cloudy
7:00 PM 46.4 °F 43.5 °F 44.6 °F 93% 29.50 in 6.2 mi SSW 5.8 mph - N/A   Scattered Clouds
7:30 PM 44.6 °F 40.7 °F 44.6 °F 100% 29.53 in 6.2 mi West 6.9 mph - N/A Rain Light Rain
8:00 PM 44.6 °F 40.7 °F 42.8 °F 93% 29.53 in 6.2 mi WSW 6.9 mph - N/A   Mostly Cloudy
8:30 PM 44.6 °F 40.7 °F 42.8 °F 93% 29.53 in 6.2 mi SSW 6.9 mph - N/A   Partly Cloudy
9:00 PM 44.6 °F 40.7 °F 42.8 °F 93% 29.56 in 6.2 mi SW 6.9 mph - N/A Rain Light Rain
9:30 PM 42.8 °F 38.6 °F 41.0 °F 93% 29.56 in 6.2 mi WSW 6.9 mph - N/A   Scattered Clouds
10:00 PM 44.6 °F 39.7 °F 42.8 °F 93% 29.56 in 6.2 mi SW 9.2 mph - N/A   Partly Cloudy
10:30 PM 44.6 °F 39.7 °F 41.0 °F 87% 29.56 in 6.2 mi West 9.2 mph - N/A   Mostly Cloudy
11:00 PM 44.6 °F 40.2 °F 41.0 °F 87% 29.59 in 6.2 mi West 8.1 mph - N/A   Mostly Cloudy
11:30 PM 42.8 °F 38.6 °F 41.0 °F 93% 29.59 in 6.2 mi WSW 6.9 mph - N/A   Mostly Cloudy